﻿測定場所 (Monitoring sites),日付 (Measurement date),時間 (Measurement time),線量率 最大値 (max) μGy/h,線量率 最小値 (min) μGy/h,線量率 平均値 (average) μGy/h,
足立 (Adachi),2015-01-18,23:01～24:00,0.0444,0.0384,0.0413,
足立 (Adachi),2015-01-18,22:01～23:00,0.0451,0.0385,0.0413,
足立 (Adachi),2015-01-18,21:01～22:00,0.0445,0.0390,0.0413,
足立 (Adachi),2015-01-18,20:01～21:00,0.0462,0.0387,0.0413,
足立 (Adachi),2015-01-18,19:01～20:00,0.0442,0.0377,0.0410,
足立 (Adachi),2015-01-18,18:01～19:00,0.0436,0.0373,0.0410,
足立 (Adachi),2015-01-18,17:01～18:00,0.0453,0.0381,0.0409,
足立 (Adachi),2015-01-18,16:01～17:00,0.0440,0.0378,0.0409,
足立 (Adachi),2015-01-18,15:01～16:00,0.0445,0.0382,0.0408,
足立 (Adachi),2015-01-18,14:01～15:00,0.0436,0.0378,0.0410,
足立 (Adachi),2015-01-18,13:01～14:00,0.0443,0.0374,0.0409,
足立 (Adachi),2015-01-18,12:01～13:00,0.0449,0.0388,0.0409,
足立 (Adachi),2015-01-18,11:01～12:00,0.0442,0.0387,0.0408,
足立 (Adachi),2015-01-18,10:01～11:00,0.0456,0.0379,0.0413,
足立 (Adachi),2015-01-18,09:01～10:00,0.0452,0.0381,0.0412,
足立 (Adachi),2015-01-18,08:01～09:00,0.0438,0.0377,0.0411,
足立 (Adachi),2015-01-18,07:01～08:00,0.0452,0.0374,0.0408,
足立 (Adachi),2015-01-18,06:01～07:00,0.0448,0.0383,0.0412,
足立 (Adachi),2015-01-18,05:01～06:00,0.0443,0.0390,0.0414,
足立 (Adachi),2015-01-18,04:01～05:00,0.0437,0.0376,0.0410,
足立 (Adachi),2015-01-18,03:01～04:00,0.0444,0.0384,0.0413,
足立 (Adachi),2015-01-18,02:01～03:00,0.0444,0.0388,0.0413,
足立 (Adachi),2015-01-18,01:01～02:00,0.0451,0.0386,0.0416,
足立 (Adachi),2015-01-18,00:01～01:00,0.0450,0.0382,0.0412,
足立 (Adachi),2015-01-17,23:01～24:00,0.0452,0.0386,0.0417,
足立 (Adachi),2015-01-17,22:01～23:00,0.0449,0.0383,0.0417,
足立 (Adachi),2015-01-17,21:01～22:00,0.0456,0.0372,0.0416,
足立 (Adachi),2015-01-17,20:01～21:00,0.0443,0.0392,0.0416,
足立 (Adachi),2015-01-17,19:01～20:00,0.0447,0.0377,0.0412,
足立 (Adachi),2015-01-17,18:01～19:00,0.0454,0.0381,0.0412,
足立 (Adachi),2015-01-17,17:01～18:00,0.0442,0.0383,0.0416,
足立 (Adachi),2015-01-17,16:01～17:00,0.0443,0.0382,0.0417,
足立 (Adachi),2015-01-17,15:01～16:00,0.0444,0.0394,0.0419,
足立 (Adachi),2015-01-17,14:01～15:00,0.0452,0.0392,0.0420,
足立 (Adachi),2015-01-17,13:01～14:00,0.0454,0.0390,0.0421,
足立 (Adachi),2015-01-17,12:01～13:00,0.0447,0.0396,0.0424,
足立 (Adachi),2015-01-17,11:01～12:00,0.0454,0.0390,0.0420,
足立 (Adachi),2015-01-17,10:01～11:00,0.0442,0.0385,0.0418,
足立 (Adachi),2015-01-17,09:01～10:00,0.0436,0.0379,0.0416,
足立 (Adachi),2015-01-17,08:01～09:00,0.0454,0.0384,0.0410,
足立 (Adachi),2015-01-17,07:01～08:00,0.0433,0.0382,0.0411,
足立 (Adachi),2015-01-17,06:01～07:00,0.0437,0.0365,0.0411,
足立 (Adachi),2015-01-17,05:01～06:00,0.0450,0.0374,0.0411,
足立 (Adachi),2015-01-17,04:01～05:00,0.0439,0.0371,0.0409,
足立 (Adachi),2015-01-17,03:01～04:00,0.0438,0.0376,0.0407,
足立 (Adachi),2015-01-17,02:01～03:00,0.0443,0.0381,0.0410,
足立 (Adachi),2015-01-17,01:01～02:00,0.0445,0.0379,0.0407,
足立 (Adachi),2015-01-17,00:01～01:00,0.0433,0.0381,0.0406,
足立 (Adachi),2015-01-16,23:01～24:00,0.0435,0.0377,0.0407,
足立 (Adachi),2015-01-16,22:01～23:00,0.0446,0.0376,0.0414,
足立 (Adachi),2015-01-16,21:01～22:00,0.0452,0.0396,0.0427,
足立 (Adachi),2015-01-16,20:01～21:00,0.0465,0.0395,0.0431,
足立 (Adachi),2015-01-16,19:01～20:00,0.0456,0.0374,0.0411,
足立 (Adachi),2015-01-16,18:01～19:00,0.0435,0.0383,0.0406,
足立 (Adachi),2015-01-16,17:01～18:00,0.0453,0.0371,0.0405,
足立 (Adachi),2015-01-16,16:01～17:00,0.0436,0.0372,0.0401,
足立 (Adachi),2015-01-16,15:01～16:00,0.0432,0.0369,0.0401,
足立 (Adachi),2015-01-16,14:01～15:00,0.0439,0.0370,0.0406,
足立 (Adachi),2015-01-16,13:01～14:00,0.0429,0.0371,0.0400,
足立 (Adachi),2015-01-16,12:01～13:00,0.0434,0.0368,0.0402,
足立 (Adachi),2015-01-16,11:01～12:00,0.0432,0.0374,0.0402,
足立 (Adachi),2015-01-16,10:01～11:00,0.0432,0.0379,0.0407,
足立 (Adachi),2015-01-16,09:01～10:00,0.0425,0.0374,0.0399,
足立 (Adachi),2015-01-16,08:01～09:00,0.0433,0.0362,0.0397,
足立 (Adachi),2015-01-16,07:01～08:00,0.0422,0.0369,0.0396,
足立 (Adachi),2015-01-16,06:01～07:00,0.0424,0.0363,0.0391,
足立 (Adachi),2015-01-16,05:01～06:00,0.0427,0.0364,0.0395,
足立 (Adachi),2015-01-16,04:01～05:00,0.0429,0.0376,0.0402,
足立 (Adachi),2015-01-16,03:01～04:00,0.0435,0.0382,0.0403,
足立 (Adachi),2015-01-16,02:01～03:00,0.0438,0.0377,0.0403,
足立 (Adachi),2015-01-16,01:01～02:00,0.0437,0.0382,0.0409,
足立 (Adachi),2015-01-16,00:01～01:00,0.0483,0.0381,0.0424,
足立 (Adachi),2015-01-15,23:01～24:00,0.0518,0.0422,0.0464,
足立 (Adachi),2015-01-15,22:01～23:00,0.0494,0.0426,0.0472,
足立 (Adachi),2015-01-15,21:01～22:00,0.0502,0.0433,0.0467,
足立 (Adachi),2015-01-15,20:01～21:00,0.0508,0.0453,0.0482,
足立 (Adachi),2015-01-15,19:01～20:00,0.0525,0.0436,0.0484,
足立 (Adachi),2015-01-15,18:01～19:00,0.0516,0.0458,0.0479,
足立 (Adachi),2015-01-15,17:01～18:00,0.0535,0.0432,0.0480,
足立 (Adachi),2015-01-15,16:01～17:00,0.0584,0.0490,0.0531,
足立 (Adachi),2015-01-15,15:01～16:00,0.0599,0.0516,0.0548,
足立 (Adachi),2015-01-15,14:01～15:00,0.0572,0.0488,0.0533,
足立 (Adachi),2015-01-15,13:01～14:00,0.0528,0.0451,0.0492,
足立 (Adachi),2015-01-15,12:01～13:00,0.0513,0.0439,0.0472,
足立 (Adachi),2015-01-15,11:01～12:00,0.0511,0.0444,0.0474,
足立 (Adachi),2015-01-15,10:01～11:00,0.0489,0.0427,0.0465,
足立 (Adachi),2015-01-15,09:01～10:00,0.0480,0.0405,0.0441,
足立 (Adachi),2015-01-15,08:01～09:00,0.0464,0.0386,0.0436,
足立 (Adachi),2015-01-15,07:01～08:00,0.0464,0.0398,0.0430,
足立 (Adachi),2015-01-15,06:01～07:00,0.0476,0.0405,0.0433,
足立 (Adachi),2015-01-15,05:01～06:00,0.0465,0.0399,0.0432,
足立 (Adachi),2015-01-15,04:01～05:00,0.0457,0.0396,0.0432,
足立 (Adachi),2015-01-15,03:01～04:00,0.0457,0.0401,0.0430,
足立 (Adachi),2015-01-15,02:01～03:00,0.0457,0.0396,0.0433,
足立 (Adachi),2015-01-15,01:01～02:00,0.0465,0.0401,0.0427,
足立 (Adachi),2015-01-15,00:01～01:00,0.0459,0.0398,0.0428,
足立 (Adachi),2015-01-14,23:01～24:00,0.0465,0.0394,0.0429,
足立 (Adachi),2015-01-14,22:01～23:00,0.0458,0.0386,0.0427,
足立 (Adachi),2015-01-14,21:01～22:00,0.0446,0.0403,0.0422,
足立 (Adachi),2015-01-14,20:01～21:00,0.0456,0.0387,0.0424,
足立 (Adachi),2015-01-14,19:01～20:00,0.0441,0.0394,0.0421,
足立 (Adachi),2015-01-14,18:01～19:00,0.0457,0.0398,0.0423,
足立 (Adachi),2015-01-14,17:01～18:00,0.0457,0.0398,0.0423,
足立 (Adachi),2015-01-14,16:01～17:00,0.0452,0.0398,0.0423,
足立 (Adachi),2015-01-14,15:01～16:00,0.0455,0.0392,0.0422,
足立 (Adachi),2015-01-14,14:01～15:00,0.0465,0.0377,0.0421,
足立 (Adachi),2015-01-14,13:01～14:00,0.0477,0.0390,0.0419,
足立 (Adachi),2015-01-14,12:01～13:00,0.0460,0.0394,0.0424,
足立 (Adachi),2015-01-14,11:01～12:00,0.0461,0.0389,0.0422,
足立 (Adachi),2015-01-14,10:01～11:00,0.0460,0.0381,0.0425,
足立 (Adachi),2015-01-14,09:01～10:00,0.0448,0.0398,0.0426,
足立 (Adachi),2015-01-14,08:01～09:00,0.0449,0.0391,0.0423,
足立 (Adachi),2015-01-14,07:01～08:00,0.0449,0.0382,0.0416,
足立 (Adachi),2015-01-14,06:01～07:00,0.0441,0.0380,0.0412,
足立 (Adachi),2015-01-14,05:01～06:00,0.0451,0.0388,0.0413,
足立 (Adachi),2015-01-14,04:01～05:00,0.0444,0.0374,0.0414,
足立 (Adachi),2015-01-14,03:01～04:00,0.0452,0.0399,0.0421,
足立 (Adachi),2015-01-14,02:01～03:00,0.0451,0.0386,0.0420,
足立 (Adachi),2015-01-14,01:01～02:00,0.0454,0.0377,0.0418,
足立 (Adachi),2015-01-14,00:01～01:00,0.0462,0.0377,0.0414,
足立 (Adachi),2015-01-13,23:01～24:00,0.0447,0.0380,0.0417,
足立 (Adachi),2015-01-13,22:01～23:00,0.0448,0.0382,0.0417,
足立 (Adachi),2015-01-13,21:01～22:00,0.0439,0.0388,0.0416,
足立 (Adachi),2015-01-13,20:01～21:00,0.0441,0.0374,0.0416,
足立 (Adachi),2015-01-13,19:01～20:00,0.0456,0.0388,0.0417,
足立 (Adachi),2015-01-13,18:01～19:00,0.0438,0.0384,0.0410,
足立 (Adachi),2015-01-13,17:01～18:00,0.0440,0.0374,0.0412,
足立 (Adachi),2015-01-13,16:01～17:00,0.0455,0.0382,0.0416,
足立 (Adachi),2015-01-13,15:01～16:00,0.0446,0.0382,0.0414,
足立 (Adachi),2015-01-13,14:01～15:00,0.0434,0.0380,0.0411,
足立 (Adachi),2015-01-13,13:01～14:00,0.0444,0.0390,0.0414,
足立 (Adachi),2015-01-13,12:01～13:00,0.0449,0.0388,0.0415,
足立 (Adachi),2015-01-13,11:01～12:00,0.0447,0.0381,0.0414,
足立 (Adachi),2015-01-13,10:01～11:00,0.0447,0.0382,0.0416,
足立 (Adachi),2015-01-13,09:01～10:00,0.0450,0.0389,0.0417,
足立 (Adachi),2015-01-13,08:01～09:00,0.0449,0.0392,0.0416,
足立 (Adachi),2015-01-13,07:01～08:00,0.0455,0.0384,0.0416,
足立 (Adachi),2015-01-13,06:01～07:00,0.0452,0.0387,0.0415,
足立 (Adachi),2015-01-13,05:01～06:00,0.0443,0.0383,0.0417,
足立 (Adachi),2015-01-13,04:01～05:00,0.0452,0.0393,0.0422,
足立 (Adachi),2015-01-13,03:01～04:00,0.0457,0.0382,0.0424,
足立 (Adachi),2015-01-13,02:01～03:00,0.0449,0.0389,0.0424,
足立 (Adachi),2015-01-13,01:01～02:00,0.0452,0.0396,0.0422,
足立 (Adachi),2015-01-13,00:01～01:00,0.0460,0.0395,0.0419,
足立 (Adachi),2015-01-12,23:01～24:00,0.0458,0.0391,0.0423,
足立 (Adachi),2015-01-12,22:01～23:00,0.0461,0.0395,0.0422,
足立 (Adachi),2015-01-12,21:01～22:00,0.0452,0.0391,0.0420,
足立 (Adachi),2015-01-12,20:01～21:00,0.0454,0.0396,0.0421,
足立 (Adachi),2015-01-12,19:01～20:00,0.0442,0.0391,0.0424,
足立 (Adachi),2015-01-12,18:01～19:00,0.0452,0.0386,0.0420,
足立 (Adachi),2015-01-12,17:01～18:00,0.0457,0.0394,0.0422,
足立 (Adachi),2015-01-12,16:01～17:00,0.0452,0.0392,0.0419,
足立 (Adachi),2015-01-12,15:01～16:00,0.0448,0.0377,0.0419,
足立 (Adachi),2015-01-12,14:01～15:00,0.0464,0.0393,0.0421,
足立 (Adachi),2015-01-12,13:01～14:00,0.0453,0.0395,0.0420,
足立 (Adachi),2015-01-12,12:01～13:00,0.0450,0.0393,0.0419,
足立 (Adachi),2015-01-12,11:01～12:00,0.0449,0.0391,0.0423,
足立 (Adachi),2015-01-12,10:01～11:00,0.0459,0.0392,0.0423,
足立 (Adachi),2015-01-12,09:01～10:00,0.0458,0.0374,0.0425,
足立 (Adachi),2015-01-12,08:01～09:00,0.0465,0.0395,0.0424,
足立 (Adachi),2015-01-12,07:01～08:00,0.0458,0.0389,0.0421,
足立 (Adachi),2015-01-12,06:01～07:00,0.0457,0.0385,0.0421,
足立 (Adachi),2015-01-12,05:01～06:00,0.0442,0.0398,0.0424,
足立 (Adachi),2015-01-12,04:01～05:00,0.0460,0.0394,0.0428,
足立 (Adachi),2015-01-12,03:01～04:00,0.0465,0.0400,0.0426,
足立 (Adachi),2015-01-12,02:01～03:00,0.0454,0.0400,0.0426,
足立 (Adachi),2015-01-12,01:01～02:00,0.0460,0.0393,0.0423,
足立 (Adachi),2015-01-12,00:01～01:00,0.0464,0.0388,0.0427,
